2023/02/08 00:00:00,59.1,-0.6
2023/02/08 00:10:00,59.0,-0.9
2023/02/08 00:20:00,59.0,-0.7
2023/02/08 00:30:00,59.0,-0.9
2023/02/08 00:40:00,59.0,-0.8
2023/02/08 00:50:00,59.1,-0.9
2023/02/08 01:00:00,59.2,-0.8
2023/02/08 01:10:00,59.2,-0.8
2023/02/08 01:20:00,59.3,-0.5
2023/02/08 01:30:00,59.4,-0.4
2023/02/08 01:40:00,59.4,-0.5
2023/02/08 01:50:00,59.3,-0.5
2023/02/08 02:00:00,59.3,-0.3
2023/02/08 02:10:00,59.2,-0.2
2023/02/08 02:20:00,59.1,-0.1
2023/02/08 02:30:00,59.0,-0.6
2023/02/08 02:40:00,59.0,-0.2
2023/02/08 02:50:00,59.0,-0.2
2023/02/08 03:00:00,58.8, 0.0
2023/02/08 03:10:00,58.8,-0.1
2023/02/08 03:20:00,58.8,-0.1
2023/02/08 03:30:00,58.8,-0.1
2023/02/08 03:40:00,58.8, 0.0
2023/02/08 03:50:00,58.8,-0.3
2023/02/08 04:00:00,58.7, 0.0
2023/02/08 04:10:00,58.7, 0.0
2023/02/08 04:20:00,58.5, 0.0
2023/02/08 04:30:00,58.3, 0.0
2023/02/08 04:40:00,58.2, 0.3
2023/02/08 04:50:00,58.1, 0.3
2023/02/08 05:00:00,57.9, 0.2
2023/02/08 05:10:00,57.9, 0.3
2023/02/08 05:20:00,57.8, 0.2
2023/02/08 05:30:00,58.0, 0.2
2023/02/08 05:40:00,57.7, 0.2
2023/02/08 05:50:00,57.7, 0.3
2023/02/08 06:00:00,57.7, 0.2
2023/02/08 06:10:00,57.8,-0.1
2023/02/08 06:20:00,57.8, 0.3
2023/02/08 06:30:00,57.8, 0.4
2023/02/08 06:40:00,58.0, 0.6
2023/02/08 06:50:00,58.1, 0.7
2023/02/08 07:00:00,58.2, 0.6
2023/02/08 07:10:00,58.2, 0.7
2023/02/08 07:20:00,58.0, 0.7
2023/02/08 07:30:00,57.9, 0.7
2023/02/08 07:40:00,57.8, 0.6
2023/02/08 07:50:00,57.9, 1.0
2023/02/08 08:00:00,57.9, 0.4
2023/02/08 08:10:00,57.8, 0.7
2023/02/08 08:20:00,57.6, 0.7
2023/02/08 08:30:00,57.7, 0.5
2023/02/08 08:40:00,57.7, 1.4
2023/02/08 08:50:00,57.8, 0.8
2023/02/08 09:00:00,57.7, 0.9
2023/02/08 09:10:00,57.6, 0.7
2023/02/08 09:20:00,57.5, 0.9
2023/02/08 09:30:00,57.4, 1.0
2023/02/08 09:40:00,57.3, 1.3
2023/02/08 09:50:00,57.1, 1.4
2023/02/08 10:00:00,57.0, 1.0
2023/02/08 10:10:00,56.6, 1.2
2023/02/08 10:20:00,56.6, 1.9
2023/02/08 10:30:00,55.4, 2.4
2023/02/08 10:40:00,56.6, 1.6
2023/02/08 10:50:00,56.4, 2.4
2023/02/08 11:00:00,56.5, 2.0
2023/02/08 11:10:00,56.0, 3.0
2023/02/08 11:20:00,55.7, 4.0
2023/02/08 11:30:00,56.0, 3.3
2023/02/08 11:40:00,56.1, 2.4
2023/02/08 11:50:00,55.4, 2.7
2023/02/08 12:00:00,54.9, 2.7
2023/02/08 12:10:00,55.2, 2.7
2023/02/08 12:20:00,54.6, 3.9
2023/02/08 12:30:00,54.7, 3.7
2023/02/08 12:40:00,55.2, 3.1
2023/02/08 12:50:00,55.1, 2.2
2023/02/08 13:00:00,54.9, 2.1
2023/02/08 13:10:00,54.9, 2.4
2023/02/08 13:20:00,54.9, 2.3
2023/02/08 13:30:00,54.9, 2.2
2023/02/08 13:40:00,54.3, 2.7
2023/02/08 13:50:00,54.2, 2.4
2023/02/08 14:00:00,54.4, 2.3
2023/02/08 14:10:00,54.4, 2.1
2023/02/08 14:20:00,54.0, 2.6
2023/02/08 14:30:00,53.7, 2.5
2023/02/08 14:40:00,53.1, 3.0
2023/02/08 14:50:00,53.4, 2.5
2023/02/08 15:00:00,53.7, 2.2
2023/02/08 15:10:00,53.2, 2.5
2023/02/08 15:20:00,53.3, 2.2
2023/02/08 15:30:00,52.7, 2.5
2023/02/08 15:40:00,52.5, 2.4
2023/02/08 15:50:00,52.5, 2.4
2023/02/08 16:00:00,52.5, 2.3
2023/02/08 16:10:00,52.3, 2.4
2023/02/08 16:20:00,52.6, 1.9
2023/02/08 16:30:00,52.4, 1.9
2023/02/08 16:40:00,52.5, 1.6
2023/02/08 16:50:00,52.7, 1.4
2023/02/08 17:00:00,52.6, 1.2
2023/02/08 17:10:00,52.7, 1.1
2023/02/08 17:20:00,52.6, 0.7
2023/02/08 17:30:00,52.5, 0.7
2023/02/08 17:40:00,52.5, 0.8
2023/02/08 17:50:00,52.5, 0.7
2023/02/08 18:00:00,52.5, 0.6
2023/02/08 18:10:00,52.4, 0.4
2023/02/08 18:20:00,52.3, 0.4
2023/02/08 18:30:00,52.0, 0.5
2023/02/08 18:40:00,51.7, 0.5
2023/02/08 18:50:00,51.6, 0.5
2023/02/08 19:00:00,51.8, 0.4
2023/02/08 19:10:00,51.8, 0.4
2023/02/08 19:20:00,51.7, 0.4
2023/02/08 19:30:00,51.7, 0.3
2023/02/08 19:40:00,51.5, 0.4
2023/02/08 19:50:00,51.3, 0.5
2023/02/08 20:00:00,51.1, 0.3
2023/02/08 20:10:00,50.9, 0.2
2023/02/08 20:20:00,50.8, 0.7
2023/02/08 20:30:00,50.9, 0.4
2023/02/08 20:40:00,50.9, 0.3
2023/02/08 20:50:00,51.1, 0.2
2023/02/08 21:00:00,51.1, 0.2
2023/02/08 21:10:00,51.0, 0.2
2023/02/08 21:20:00,50.8, 0.3
2023/02/08 21:30:00,50.8, 0.1
2023/02/08 21:40:00,50.7, 0.1
2023/02/08 21:50:00,50.5, 0.1
2023/02/08 22:00:00,50.3, 0.1
2023/02/08 22:10:00,50.3, 0.0
2023/02/08 22:20:00,50.3, 0.4
2023/02/08 22:30:00,50.2,-0.1
2023/02/08 22:40:00,50.3,-0.1
2023/02/08 22:50:00,50.4, 0.0
2023/02/08 23:00:00,50.3, 0.0
2023/02/08 23:10:00,50.2, 0.0
2023/02/08 23:20:00,50.1, 0.0
2023/02/08 23:30:00,50.0, 0.0
2023/02/08 23:40:00,50.0, 0.0
2023/02/08 23:50:00,50.0,-0.2
